Time,TemperatureF,DewpointF,PressureIn,WindDirection,WindDirectionDegrees,WindSpeedMPH,WindSpeedGustMPH,Humidity,HourlyPrecipIn,Conditions,Clouds,dailyrainin,SoftwareType,DateUTC
2013-02-28 00:00:00,42.7,41.6,30.30,NNE,30,1.0,4.0,96,0.00,,,0.00,WUHU216DAVISVP2,2013-02-28 08:00:00,
2013-02-28 00:05:00,42.6,41.5,30.30,ENE,70,0.0,4.0,96,0.00,,,0.00,WUHU216DAVISVP2,2013-02-28 08:05:00,
2013-02-28 00:10:00,42.6,41.5,30.30,ENE,75,1.0,4.0,96,0.00,,,0.00,WUHU216DAVISVP2,2013-02-28 08:10:00,
2013-02-28 00:15:00,42.6,41.5,30.30,ENE,60,2.0,3.0,96,0.00,,,0.00,WUHU216DAVISVP2,2013-02-28 08:15:00,
2013-02-28 00:20:00,42.5,41.4,30.30,ENE,66,2.0,4.0,96,0.00,,,0.00,WUHU216DAVISVP2,2013-02-28 08:20:00,
2013-02-28 00:25:00,42.5,41.4,30.30,ENE,60,2.0,4.0,96,0.00,,,0.00,WUHU216DAVISVP2,2013-02-28 08:25:00,
2013-02-28 00:30:00,42.5,41.4,30.30,East,94,2.0,4.0,96,0.00,,,0.00,WUHU216DAVISVP2,2013-02-28 08:30:00,
2013-02-28 00:35:00,42.5,41.4,30.29,NE,53,1.0,4.0,96,0.00,,,0.00,WUHU216DAVISVP2,2013-02-28 08:35:00,
2013-02-28 00:40:00,42.4,41.3,30.30,NE,51,0.0,4.0,96,0.00,,,0.00,WUHU216DAVISVP2,2013-02-28 08:40:00,
2013-02-28 00:45:00,42.4,41.3,30.29,East,94,1.0,4.0,96,0.00,,,0.00,WUHU216DAVISVP2,2013-02-28 08:45:00,
2013-02-28 00:50:00,42.4,41.3,30.29,NE,39,0.0,4.0,96,0.00,,,0.00,WUHU216DAVISVP2,2013-02-28 08:50:00,
2013-02-28 00:55:00,42.4,41.3,30.29,SSE,165,1.0,3.0,96,0.00,,,0.00,WUHU216DAVISVP2,2013-02-28 08:55:00,
2013-02-28 01:00:00,42.4,41.3,30.29,ENE,77,0.0,3.0,96,0.00,,,0.00,WUHU216DAVISVP2,2013-02-28 09:00:00,
2013-02-28 01:05:00,42.4,41.3,30.29,ENE,68,3.0,4.0,96,0.00,,,0.00,WUHU216DAVISVP2,2013-02-28 09:05:00,
2013-02-28 01:10:00,42.4,41.3,30.29,ENE,64,4.0,5.0,96,0.00,,,0.00,WUHU216DAVISVP2,2013-02-28 09:10:00,
2013-02-28 01:15:00,42.4,41.3,30.29,ENE,65,3.0,5.0,96,0.01,,,0.01,WUHU216DAVISVP2,2013-02-28 09:15:00,
2013-02-28 01:20:00,42.4,41.3,30.29,ENE,70,5.0,5.0,96,0.01,,,0.01,WUHU216DAVISVP2,2013-02-28 09:20:00,
2013-02-28 01:25:00,42.4,41.3,30.28,ENE,61,2.0,5.0,96,0.01,,,0.01,WUHU216DAVISVP2,2013-02-28 09:25:00,
2013-02-28 01:30:00,42.4,41.3,30.28,East,87,1.0,5.0,96,0.02,,,0.02,WUHU216DAVISVP2,2013-02-28 09:30:00,
2013-02-28 01:35:00,42.3,41.2,30.28,ENE,70,0.0,4.0,96,0.02,,,0.02,WUHU216DAVISVP2,2013-02-28 09:35:00,
2013-02-28 01:40:00,42.2,41.1,30.28,ENE,74,1.0,4.0,96,0.02,,,0.02,WUHU216DAVISVP2,2013-02-28 09:40:00,
2013-02-28 01:45:00,42.2,41.1,30.28,ENE,58,1.0,4.0,96,0.03,,,0.03,WUHU216DAVISVP2,2013-02-28 09:45:00,
2013-02-28 01:50:00,42.2,41.1,30.28,ENE,63,0.0,3.0,96,0.03,,,0.03,WUHU216DAVISVP2,2013-02-28 09:50:00,
2013-02-28 01:55:00,42.2,41.1,30.28,ENE,70,2.0,3.0,96,0.03,,,0.03,WUHU216DAVISVP2,2013-02-28 09:55:00,
2013-02-28 02:00:00,42.1,41.0,30.28,ENE,70,0.0,3.0,96,0.03,,,0.03,WUHU216DAVISVP2,2013-02-28 10:00:00,
2013-02-28 02:05:00,42.1,41.0,30.28,ENE,67,1.0,3.0,96,0.04,,,0.04,WUHU216DAVISVP2,2013-02-28 10:05:00,
2013-02-28 02:10:00,42.1,41.0,30.28,ENE,60,1.0,3.0,96,0.04,,,0.04,WUHU216DAVISVP2,2013-02-28 10:10:00,
2013-02-28 02:15:00,42.0,40.9,30.28,ESE,108,1.0,3.0,96,0.04,,,0.05,WUHU216DAVISVP2,2013-02-28 10:15:00,
2013-02-28 02:20:00,42.0,40.9,30.28,NE,53,2.0,4.0,96,0.04,,,0.05,WUHU216DAVISVP2,2013-02-28 10:20:00,
2013-02-28 02:25:00,42.0,40.9,30.28,ENE,75,1.0,4.0,96,0.04,,,0.05,WUHU216DAVISVP2,2013-02-28 10:25:00,
2013-02-28 02:30:00,42.0,40.9,30.27,East,81,2.0,3.0,96,0.04,,,0.06,WUHU216DAVISVP2,2013-02-28 10:30:00,
2013-02-28 02:35:00,42.0,40.9,30.27,ENE,77,0.0,3.0,96,0.04,,,0.06,WUHU216DAVISVP2,2013-02-28 10:35:00,
2013-02-28 02:40:00,42.0,40.9,30.28,ENE,77,0.0,2.0,96,0.04,,,0.06,WUHU216DAVISVP2,2013-02-28 10:40:00,
2013-02-28 02:45:00,42.1,41.0,30.28,ENE,63,0.0,2.0,96,0.03,,,0.06,WUHU216DAVISVP2,2013-02-28 10:45:00,
2013-02-28 02:50:00,42.2,41.1,30.28,ENE,67,1.0,2.0,96,0.03,,,0.06,WUHU216DAVISVP2,2013-02-28 10:50:00,
2013-02-28 02:55:00,42.2,41.1,30.27,East,91,0.0,2.0,96,0.03,,,0.06,WUHU216DAVISVP2,2013-02-28 10:55:00,
2013-02-28 03:00:00,42.3,41.2,30.27,SSE,165,1.0,2.0,96,0.03,,,0.06,WUHU216DAVISVP2,2013-02-28 11:00:00,
2013-02-28 03:05:00,42.3,41.2,30.27,East,86,1.0,2.0,96,0.02,,,0.06,WUHU216DAVISVP2,2013-02-28 11:05:00,
2013-02-28 03:10:00,42.2,41.1,30.28,ENE,60,1.0,2.0,96,0.02,,,0.06,WUHU216DAVISVP2,2013-02-28 11:10:00,
2013-02-28 03:15:00,42.2,41.1,30.27,NE,55,1.0,2.0,96,0.02,,,0.07,WUHU216DAVISVP2,2013-02-28 11:15:00,
2013-02-28 03:20:00,42.2,41.1,30.27,ENE,75,0.0,2.0,96,0.02,,,0.07,WUHU216DAVISVP2,2013-02-28 11:20:00,
2013-02-28 03:25:00,42.2,41.1,30.27,North,352,0.0,2.0,96,0.02,,,0.07,WUHU216DAVISVP2,2013-02-28 11:25:00,
2013-02-28 03:30:00,42.1,41.0,30.27,East,80,0.0,2.0,96,0.01,,,0.07,WUHU216DAVISVP2,2013-02-28 11:30:00,
2013-02-28 03:35:00,42.1,41.0,30.27,East,79,1.0,2.0,96,0.01,,,0.07,WUHU216DAVISVP2,2013-02-28 11:35:00,
2013-02-28 03:40:00,42.0,40.9,30.26,ENE,63,0.0,2.0,96,0.02,,,0.08,WUHU216DAVISVP2,2013-02-28 11:40:00,
2013-02-28 03:45:00,42.0,40.9,30.26,North,6,0.0,2.0,96,0.02,,,0.08,WUHU216DAVISVP2,2013-02-28 11:45:00,
2013-02-28 03:50:00,41.9,40.8,30.27,NNE,27,0.0,2.0,96,0.02,,,0.08,WUHU216DAVISVP2,2013-02-28 11:50:00,
2013-02-28 03:55:00,41.9,40.8,30.26,ENE,70,0.0,1.0,96,0.02,,,0.08,WUHU216DAVISVP2,2013-02-28 11:55:00,
2013-02-28 04:00:00,41.9,40.8,30.26,ENE,70,0.0,1.0,96,0.03,,,0.09,WUHU216DAVISVP2,2013-02-28 12:00:00,
2013-02-28 04:05:00,41.9,40.8,30.26,ENE,74,1.0,2.0,96,0.03,,,0.09,WUHU216DAVISVP2,2013-02-28 12:05:00,
2013-02-28 04:10:00,41.9,40.8,30.26,ENE,73,1.0,2.0,96,0.04,,,0.10,WUHU216DAVISVP2,2013-02-28 12:10:00,
2013-02-28 04:15:00,41.9,40.8,30.26,ENE,77,0.0,2.0,96,0.04,,,0.11,WUHU216DAVISVP2,2013-02-28 12:15:00,
2013-02-28 04:20:00,41.9,40.8,30.26,ENE,63,1.0,2.0,96,0.04,,,0.11,WUHU216DAVISVP2,2013-02-28 12:20:00,
2013-02-28 04:25:00,41.9,41.1,30.26,ENE,67,1.0,2.0,97,0.04,,,0.11,WUHU216DAVISVP2,2013-02-28 12:25:00,
2013-02-28 04:30:00,41.9,41.1,30.26,ENE,73,0.0,2.0,97,0.05,,,0.12,WUHU216DAVISVP2,2013-02-28 12:30:00,
2013-02-28 04:35:00,41.9,41.1,30.25,ENE,74,0.0,2.0,97,0.05,,,0.12,WUHU216DAVISVP2,2013-02-28 12:35:00,
2013-02-28 04:40:00,41.8,41.0,30.26,ENE,74,0.0,2.0,97,0.05,,,0.13,WUHU216DAVISVP2,2013-02-28 12:40:00,
2013-02-28 04:45:00,41.8,41.0,30.25,ENE,75,1.0,2.0,97,0.06,,,0.14,WUHU216DAVISVP2,2013-02-28 12:45:00,
2013-02-28 04:50:00,41.8,41.0,30.25,ENE,65,0.0,2.0,97,0.06,,,0.14,WUHU216DAVISVP2,2013-02-28 12:50:00,
2013-02-28 04:55:00,41.8,41.0,30.26,ENE,67,0.0,1.0,97,0.06,,,0.14,WUHU216DAVISVP2,2013-02-28 12:55:00,
2013-02-28 05:00:00,41.8,41.0,30.25,ENE,66,0.0,1.0,97,0.05,,,0.14,WUHU216DAVISVP2,2013-02-28 13:00:00,
2013-02-28 05:05:00,41.8,41.0,30.26,ENE,67,0.0,1.0,97,0.05,,,0.14,WUHU216DAVISVP2,2013-02-28 13:05:00,
2013-02-28 05:10:00,41.8,41.0,30.25,ENE,66,0.0,0.0,97,0.04,,,0.14,WUHU216DAVISVP2,2013-02-28 13:10:00,
2013-02-28 05:15:00,41.8,41.0,30.25,ENE,66,0.0,0.0,97,0.03,,,0.14,WUHU216DAVISVP2,2013-02-28 13:15:00,
2013-02-28 05:20:00,41.8,41.0,30.25,ENE,71,0.0,0.0,97,0.03,,,0.14,WUHU216DAVISVP2,2013-02-28 13:20:00,
2013-02-28 05:25:00,41.8,41.0,30.25,ENE,70,0.0,1.0,97,0.03,,,0.14,WUHU216DAVISVP2,2013-02-28 13:25:00,
2013-02-28 05:30:00,41.7,40.9,30.25,ENE,71,0.0,1.0,97,0.02,,,0.14,WUHU216DAVISVP2,2013-02-28 13:30:00,
2013-02-28 05:35:00,41.7,40.9,30.25,ENE,70,0.0,1.0,97,0.03,,,0.15,WUHU216DAVISVP2,2013-02-28 13:35:00,
2013-02-28 05:40:00,41.7,40.9,30.25,ENE,70,0.0,1.0,97,0.02,,,0.15,WUHU216DAVISVP2,2013-02-28 13:40:00,
2013-02-28 05:45:00,41.7,40.9,30.25,ENE,70,0.0,1.0,97,0.01,,,0.15,WUHU216DAVISVP2,2013-02-28 13:45:00,
2013-02-28 05:50:00,41.7,40.9,30.25,ENE,70,0.0,1.0,97,0.01,,,0.15,WUHU216DAVISVP2,2013-02-28 13:50:00,
2013-02-28 05:55:00,41.7,40.9,30.25,NNE,16,0.0,1.0,97,0.01,,,0.15,WUHU216DAVISVP2,2013-02-28 13:55:00,
2013-02-28 06:00:00,41.6,40.8,30.25,NNE,16,0.0,1.0,97,0.01,,,0.15,WUHU216DAVISVP2,2013-02-28 14:00:00,
2013-02-28 06:05:00,41.6,40.8,30.25,NNE,16,0.0,1.0,97,0.01,,,0.15,WUHU216DAVISVP2,2013-02-28 14:05:00,
2013-02-28 06:10:00,41.6,40.8,30.25,NNE,16,0.0,1.0,97,0.01,,,0.15,WUHU216DAVISVP2,2013-02-28 14:10:00,
2013-02-28 06:15:00,41.7,40.9,30.25,NNE,16,0.0,0.0,97,0.01,,,0.15,WUHU216DAVISVP2,2013-02-28 14:15:00,
2013-02-28 06:20:00,41.7,40.9,30.24,NNE,16,0.0,0.0,97,0.01,,,0.15,WUHU216DAVISVP2,2013-02-28 14:20:00,
2013-02-28 06:25:00,41.7,40.9,30.24,NNE,16,0.0,0.0,97,0.01,,,0.15,WUHU216DAVISVP2,2013-02-28 14:25:00,
2013-02-28 06:30:00,41.7,40.9,30.24,NNE,16,0.0,0.0,97,0.01,,,0.15,WUHU216DAVISVP2,2013-02-28 14:30:00,
2013-02-28 06:35:00,41.8,41.0,30.24,NNE,16,0.0,0.0,97,0.00,,,0.15,WUHU216DAVISVP2,2013-02-28 14:35:00,
2013-02-28 06:40:00,41.8,41.0,30.24,North,10,0.0,1.0,97,0.00,,,0.15,WUHU216DAVISVP2,2013-02-28 14:40:00,
2013-02-28 06:45:00,41.8,41.0,30.24,North,6,0.0,1.0,97,0.00,,,0.15,WUHU216DAVISVP2,2013-02-28 14:45:00,
2013-02-28 06:50:00,41.8,41.0,30.24,North,355,0.0,1.0,97,0.00,,,0.15,WUHU216DAVISVP2,2013-02-28 14:50:00,
2013-02-28 06:55:00,41.8,41.0,30.24,East,80,0.0,1.0,97,0.00,,,0.15,WUHU216DAVISVP2,2013-02-28 14:55:00,
2013-02-28 07:00:00,41.8,41.0,30.24,East,95,0.0,1.0,97,0.00,,,0.15,WUHU216DAVISVP2,2013-02-28 15:00:00,
2013-02-28 07:05:00,41.8,41.0,30.24,ENE,62,0.0,2.0,97,0.00,,,0.15,WUHU216DAVISVP2,2013-02-28 15:05:00,
2013-02-28 07:10:00,41.9,41.1,30.23,ENE,63,0.0,2.0,97,0.00,,,0.15,WUHU216DAVISVP2,2013-02-28 15:10:00,
2013-02-28 07:15:00,41.9,41.1,30.23,ENE,74,1.0,2.0,97,0.00,,,0.15,WUHU216DAVISVP2,2013-02-28 15:15:00,
2013-02-28 07:20:00,41.9,41.1,30.23,ENE,59,1.0,2.0,97,0.00,,,0.15,WUHU216DAVISVP2,2013-02-28 15:20:00,
2013-02-28 07:25:00,41.9,41.1,30.23,ENE,74,0.0,2.0,97,0.00,,,0.15,WUHU216DAVISVP2,2013-02-28 15:25:00,
2013-02-28 07:30:00,41.9,41.1,30.23,East,79,0.0,2.0,97,0.00,,,0.15,WUHU216DAVISVP2,2013-02-28 15:30:00,
2013-02-28 07:35:00,41.9,41.1,30.23,ENE,77,0.0,2.0,97,0.00,,,0.15,WUHU216DAVISVP2,2013-02-28 15:35:00,
2013-02-28 07:40:00,41.9,41.1,30.23,ENE,68,1.0,2.0,97,0.00,,,0.15,WUHU216DAVISVP2,2013-02-28 15:40:00,
2013-02-28 07:45:00,41.9,41.1,30.23,ENE,77,0.0,1.0,97,0.00,,,0.15,WUHU216DAVISVP2,2013-02-28 15:45:00,
2013-02-28 07:50:00,42.0,41.2,30.23,East,79,0.0,1.0,97,0.00,,,0.15,WUHU216DAVISVP2,2013-02-28 15:50:00,
2013-02-28 07:55:00,42.2,41.4,30.23,SE,136,0.0,1.0,97,0.00,,,0.15,WUHU216DAVISVP2,2013-02-28 15:55:00,
2013-02-28 08:00:00,42.3,41.5,30.23,South,170,0.0,1.0,97,0.00,,,0.15,WUHU216DAVISVP2,2013-02-28 16:00:00,
2013-02-28 08:05:00,42.3,41.5,30.23,SE,139,0.0,1.0,97,0.01,,,0.16,WUHU216DAVISVP2,2013-02-28 16:05:00,
2013-02-28 08:10:00,42.4,41.6,30.23,SE,135,0.0,1.0,97,0.01,,,0.16,WUHU216DAVISVP2,2013-02-28 16:10:00,
2013-02-28 08:15:00,42.3,41.5,30.23,SE,125,0.0,1.0,97,0.01,,,0.16,WUHU216DAVISVP2,2013-02-28 16:15:00,
2013-02-28 08:20:00,42.3,41.5,30.23,SE,128,0.0,1.0,97,0.01,,,0.16,WUHU216DAVISVP2,2013-02-28 16:20:00,
2013-02-28 08:25:00,42.3,41.5,30.23,SE,129,0.0,1.0,97,0.01,,,0.16,WUHU216DAVISVP2,2013-02-28 16:25:00,
2013-02-28 08:30:00,42.3,41.5,30.23,SSE,165,0.0,1.0,97,0.02,,,0.17,WUHU216DAVISVP2,2013-02-28 16:30:00,
2013-02-28 08:35:00,42.4,41.6,30.23,SE,139,0.0,1.0,97,0.02,,,0.17,WUHU216DAVISVP2,2013-02-28 16:35:00,
2013-02-28 08:40:00,42.5,41.7,30.23,SE,139,0.0,1.0,97,0.02,,,0.17,WUHU216DAVISVP2,2013-02-28 16:40:00,
2013-02-28 08:45:00,42.5,41.7,30.23,SSE,152,0.0,1.0,97,0.02,,,0.17,WUHU216DAVISVP2,2013-02-28 16:45:00,
2013-02-28 08:50:00,42.7,41.9,30.23,SE,125,0.0,1.0,97,0.02,,,0.17,WUHU216DAVISVP2,2013-02-28 16:50:00,
2013-02-28 08:55:00,42.8,42.0,30.24,SSE,152,0.0,1.0,97,0.03,,,0.18,WUHU216DAVISVP2,2013-02-28 16:55:00,
2013-02-28 09:00:00,42.9,42.1,30.23,ESE,117,0.0,1.0,97,0.03,,,0.18,WUHU216DAVISVP2,2013-02-28 17:00:00,
2013-02-28 09:05:00,43.0,42.2,30.23,SSE,165,1.0,1.0,97,0.02,,,0.18,WUHU216DAVISVP2,2013-02-28 17:05:00,
2013-02-28 09:10:00,43.1,42.3,30.23,SE,145,1.0,1.0,97,0.02,,,0.18,WUHU216DAVISVP2,2013-02-28 17:10:00,
2013-02-28 09:15:00,43.2,42.4,30.23,SSE,156,1.0,3.0,97,0.03,,,0.19,WUHU216DAVISVP2,2013-02-28 17:15:00,
2013-02-28 09:20:00,43.4,42.6,30.23,East,88,0.0,3.0,97,0.03,,,0.19,WUHU216DAVISVP2,2013-02-28 17:20:00,
2013-02-28 09:25:00,43.5,42.7,30.23,ENE,70,1.0,4.0,97,0.03,,,0.19,WUHU216DAVISVP2,2013-02-28 17:25:00,
2013-02-28 09:30:00,43.6,42.8,30.23,East,99,3.0,4.0,97,0.02,,,0.19,WUHU216DAVISVP2,2013-02-28 17:30:00,
2013-02-28 09:35:00,43.7,42.6,30.23,SE,143,3.0,4.0,96,0.02,,,0.19,WUHU216DAVISVP2,2013-02-28 17:35:00,
2013-02-28 09:40:00,43.7,42.6,30.23,South,170,1.0,4.0,96,0.02,,,0.19,WUHU216DAVISVP2,2013-02-28 17:40:00,
2013-02-28 09:45:00,43.8,42.7,30.23,ENE,58,2.0,4.0,96,0.02,,,0.19,WUHU216DAVISVP2,2013-02-28 17:45:00,
2013-02-28 09:50:00,43.9,42.8,30.23,ENE,72,1.0,5.0,96,0.03,,,0.20,WUHU216DAVISVP2,2013-02-28 17:50:00,
2013-02-28 09:55:00,44.0,43.2,30.24,SSE,158,1.0,5.0,97,0.02,,,0.20,WUHU216DAVISVP2,2013-02-28 17:55:00,
2013-02-28 10:00:00,44.0,42.9,30.24,ENE,63,3.0,6.0,96,0.02,,,0.20,WUHU216DAVISVP2,2013-02-28 18:00:00,
2013-02-28 10:05:00,44.0,42.9,30.24,SSE,156,3.0,7.0,96,0.02,,,0.20,WUHU216DAVISVP2,2013-02-28 18:05:00,
2013-02-28 10:10:00,44.1,43.0,30.24,ENE,65,2.0,7.0,96,0.02,,,0.20,WUHU216DAVISVP2,2013-02-28 18:10:00,
2013-02-28 10:15:00,44.1,43.0,30.24,ENE,65,2.0,6.0,96,0.01,,,0.20,WUHU216DAVISVP2,2013-02-28 18:15:00,
2013-02-28 10:20:00,44.2,43.1,30.24,SSE,150,0.0,6.0,96,0.01,,,0.20,WUHU216DAVISVP2,2013-02-28 18:20:00,
2013-02-28 10:25:00,44.3,43.2,30.24,ENE,72,1.0,6.0,96,0.01,,,0.20,WUHU216DAVISVP2,2013-02-28 18:25:00,
2013-02-28 10:30:00,44.4,43.3,30.24,ESE,120,3.0,6.0,96,0.01,,,0.20,WUHU216DAVISVP2,2013-02-28 18:30:00,
2013-02-28 10:35:00,44.5,43.4,30.25,SSW,210,3.0,6.0,96,0.01,,,0.20,WUHU216DAVISVP2,2013-02-28 18:35:00,
2013-02-28 10:40:00,44.6,43.5,30.24,SSE,162,2.0,6.0,96,0.01,,,0.20,WUHU216DAVISVP2,2013-02-28 18:40:00,
2013-02-28 10:45:00,44.7,43.6,30.25,SSE,165,3.0,6.0,96,0.01,,,0.20,WUHU216DAVISVP2,2013-02-28 18:45:00,
2013-02-28 10:50:00,44.7,43.6,30.25,SSE,160,5.0,6.0,96,0.00,,,0.20,WUHU216DAVISVP2,2013-02-28 18:50:00,
2013-02-28 10:55:00,44.9,43.8,30.25,SSE,153,2.0,7.0,96,0.00,,,0.20,WUHU216DAVISVP2,2013-02-28 18:55:00,
2013-02-28 11:00:00,45.0,43.9,30.25,East,87,4.0,7.0,96,0.00,,,0.20,WUHU216DAVISVP2,2013-02-28 19:00:00,
2013-02-28 11:05:00,45.1,44.0,30.25,NE,47,2.0,9.0,96,0.00,,,0.20,WUHU216DAVISVP2,2013-02-28 19:05:00,
2013-02-28 11:10:00,45.3,44.2,30.25,SE,125,1.0,10.0,96,0.00,,,0.20,WUHU216DAVISVP2,2013-02-28 19:10:00,
2013-02-28 11:15:00,45.5,44.4,30.25,SSW,207,11.0,13.0,96,0.00,,,0.20,WUHU216DAVISVP2,2013-02-28 19:15:00,
2013-02-28 11:20:00,45.7,44.4,30.25,South,172,2.0,13.0,95,0.00,,,0.20,WUHU216DAVISVP2,2013-02-28 19:20:00,
2013-02-28 11:25:00,45.8,44.4,30.25,WSW,244,3.0,13.0,95,0.00,,,0.20,WUHU216DAVISVP2,2013-02-28 19:25:00,
2013-02-28 11:30:00,45.9,44.5,30.25,SE,134,6.0,16.0,95,0.00,,,0.20,WUHU216DAVISVP2,2013-02-28 19:30:00,
2013-02-28 11:35:00,46.0,44.3,30.25,ESE,108,3.0,16.0,94,0.00,,,0.20,WUHU216DAVISVP2,2013-02-28 19:35:00,
2013-02-28 11:40:00,46.0,44.6,30.25,SE,134,3.0,15.0,95,0.00,,,0.20,WUHU216DAVISVP2,2013-02-28 19:40:00,
2013-02-28 11:45:00,46.1,44.7,30.25,South,179,5.0,15.0,95,0.00,,,0.20,WUHU216DAVISVP2,2013-02-28 19:45:00,
2013-02-28 11:50:00,46.3,44.9,30.26,SW,221,8.0,13.0,95,0.00,,,0.20,WUHU216DAVISVP2,2013-02-28 19:50:00,
2013-02-28 11:55:00,46.3,44.9,30.26,WSW,255,2.0,10.0,95,0.00,,,0.20,WUHU216DAVISVP2,2013-02-28 19:55:00,
2013-02-28 12:00:00,46.5,45.1,30.26,SW,221,6.0,10.0,95,0.00,,,0.20,WUHU216DAVISVP2,2013-02-28 20:00:00,
2013-02-28 12:05:00,46.6,44.9,30.26,SW,219,6.0,11.0,94,0.00,,,0.20,WUHU216DAVISVP2,2013-02-28 20:05:00,
2013-02-28 12:10:00,46.7,45.0,30.25,SW,214,4.0,11.0,94,0.00,,,0.20,WUHU216DAVISVP2,2013-02-28 20:10:00,
2013-02-28 12:15:00,46.7,45.0,30.25,ESE,106,5.0,12.0,94,0.00,,,0.20,WUHU216DAVISVP2,2013-02-28 20:15:00,
2013-02-28 12:20:00,46.8,45.4,30.26,SW,228,1.0,12.0,95,0.00,,,0.20,WUHU216DAVISVP2,2013-02-28 20:20:00,
2013-02-28 12:25:00,46.8,45.4,30.26,SSE,152,6.0,11.0,95,0.00,,,0.20,WUHU216DAVISVP2,2013-02-28 20:25:00,
2013-02-28 12:30:00,46.8,45.1,30.26,East,101,3.0,9.0,94,0.00,,,0.20,WUHU216DAVISVP2,2013-02-28 20:30:00,
2013-02-28 12:35:00,46.9,45.5,30.26,East,80,4.0,9.0,95,0.00,,,0.20,WUHU216DAVISVP2,2013-02-28 20:35:00,
2013-02-28 12:40:00,47.0,45.6,30.26,SSW,201,5.0,10.0,95,0.00,,,0.20,WUHU216DAVISVP2,2013-02-28 20:40:00,
2013-02-28 12:45:00,47.2,45.8,30.25,SSW,200,4.0,12.0,95,0.00,,,0.20,WUHU216DAVISVP2,2013-02-28 20:45:00,
2013-02-28 12:50:00,47.4,46.0,30.25,SSW,194,7.0,12.0,95,0.00,,,0.20,WUHU216DAVISVP2,2013-02-28 20:50:00,
2013-02-28 12:55:00,47.6,46.2,30.25,SSW,201,7.0,16.0,95,0.00,,,0.20,WUHU216DAVISVP2,2013-02-28 20:55:00,
2013-02-28 13:00:00,47.9,46.2,30.25,SW,232,7.0,16.0,94,0.00,,,0.20,WUHU216DAVISVP2,2013-02-28 21:00:00,
2013-02-28 13:05:00,48.1,46.4,30.25,SE,139,4.0,15.0,94,0.00,,,0.20,WUHU216DAVISVP2,2013-02-28 21:05:00,
2013-02-28 13:10:00,48.2,46.5,30.25,SSW,203,3.0,15.0,94,0.00,,,0.20,WUHU216DAVISVP2,2013-02-28 21:10:00,
2013-02-28 13:15:00,48.5,46.8,30.25,SSW,197,8.0,15.0,94,0.00,,,0.20,WUHU216DAVISVP2,2013-02-28 21:15:00,
2013-02-28 13:20:00,48.7,46.7,30.25,WSW,239,12.0,16.0,93,0.00,,,0.20,WUHU216DAVISVP2,2013-02-28 21:20:00,
2013-02-28 13:25:00,48.9,47.2,30.26,South,172,4.0,16.0,94,0.00,,,0.20,WUHU216DAVISVP2,2013-02-28 21:25:00,
2013-02-28 13:30:00,49.0,47.3,30.25,NNW,347,2.0,16.0,94,0.00,,,0.20,WUHU216DAVISVP2,2013-02-28 21:30:00,
2013-02-28 13:35:00,49.1,47.1,30.25,SE,146,10.0,15.0,93,0.00,,,0.20,WUHU216DAVISVP2,2013-02-28 21:35:00,
2013-02-28 13:40:00,49.2,47.2,30.26,WNW,288,5.0,13.0,93,0.00,,,0.20,WUHU216DAVISVP2,2013-02-28 21:40:00,
2013-02-28 13:45:00,49.3,47.3,30.26,SSE,148,2.0,12.0,93,0.00,,,0.20,WUHU216DAVISVP2,2013-02-28 21:45:00,
2013-02-28 13:50:00,49.4,47.4,30.27,SW,228,5.0,12.0,93,0.00,,,0.20,WUHU216DAVISVP2,2013-02-28 21:50:00,
2013-02-28 13:55:00,49.5,47.5,30.27,ESE,121,5.0,10.0,93,0.00,,,0.20,WUHU216DAVISVP2,2013-02-28 21:55:00,
2013-02-28 14:00:00,49.6,47.7,30.27,ENE,63,2.0,12.0,93,0.00,,,0.20,WUHU216DAVISVP2,2013-02-28 22:00:00,
2013-02-28 14:05:00,49.6,47.7,30.27,South,176,3.0,12.0,93,0.00,,,0.20,WUHU216DAVISVP2,2013-02-28 22:05:00,
2013-02-28 14:10:00,49.6,47.7,30.27,NNW,338,2.0,11.0,93,0.00,,,0.20,WUHU216DAVISVP2,2013-02-28 22:10:00,
2013-02-28 14:15:00,49.6,47.6,30.27,SE,138,5.0,11.0,93,0.00,,,0.20,WUHU216DAVISVP2,2013-02-28 22:15:00,
2013-02-28 14:20:00,49.6,47.6,30.27,SSE,168,2.0,11.0,93,0.00,,,0.20,WUHU216DAVISVP2,2013-02-28 22:20:00,
2013-02-28 14:25:00,49.2,47.2,30.28,ESE,113,2.0,11.0,93,0.00,,,0.20,WUHU216DAVISVP2,2013-02-28 22:25:00,
2013-02-28 14:30:00,49.1,47.4,30.28,SE,129,2.0,10.0,94,0.00,,,0.20,WUHU216DAVISVP2,2013-02-28 22:30:00,
2013-02-28 14:35:00,49.1,47.4,30.28,ENE,75,2.0,8.0,94,0.00,,,0.20,WUHU216DAVISVP2,2013-02-28 22:35:00,
2013-02-28 14:40:00,49.1,47.4,30.28,ESE,113,1.0,9.0,94,0.00,,,0.20,WUHU216DAVISVP2,2013-02-28 22:40:00,
2013-02-28 14:45:00,48.8,47.1,30.28,SE,145,2.0,9.0,94,0.00,,,0.20,WUHU216DAVISVP2,2013-02-28 22:45:00,
2013-02-28 14:50:00,48.8,47.4,30.29,SSE,165,5.0,9.0,95,0.00,,,0.20,WUHU216DAVISVP2,2013-02-28 22:50:00,
2013-02-28 14:55:00,48.9,47.5,30.29,ENE,66,1.0,9.0,95,0.00,,,0.20,WUHU216DAVISVP2,2013-02-28 22:55:00,
2013-02-28 15:00:00,49.0,47.6,30.29,SE,139,1.0,7.0,95,0.00,,,0.20,WUHU216DAVISVP2,2013-02-28 23:00:00,
2013-02-28 15:05:00,49.2,47.8,30.29,East,82,6.0,9.0,95,0.00,,,0.20,WUHU216DAVISVP2,2013-02-28 23:05:00,
2013-02-28 15:10:00,49.6,48.2,30.30,SSE,149,2.0,9.0,95,0.00,,,0.20,WUHU216DAVISVP2,2013-02-28 23:10:00,
2013-02-28 15:15:00,49.9,48.5,30.30,South,174,3.0,13.0,95,0.00,,,0.20,WUHU216DAVISVP2,2013-02-28 23:15:00,
2013-02-28 15:20:00,50.2,48.8,30.29,SSW,210,5.0,13.0,95,0.00,,,0.20,WUHU216DAVISVP2,2013-02-28 23:20:00,
2013-02-28 15:25:00,50.4,48.7,30.30,SW,232,11.0,14.0,94,0.00,,,0.20,WUHU216DAVISVP2,2013-02-28 23:25:00,
2013-02-28 15:30:00,50.6,48.9,30.30,South,173,5.0,14.0,94,0.00,,,0.20,WUHU216DAVISVP2,2013-02-28 23:30:00,
2013-02-28 15:35:00,50.7,49.0,30.29,SW,225,8.0,14.0,94,0.00,,,0.20,WUHU216DAVISVP2,2013-02-28 23:35:00,
2013-02-28 15:40:00,50.8,49.1,30.29,WSW,239,7.0,14.0,94,0.00,,,0.20,WUHU216DAVISVP2,2013-02-28 23:40:00,
2013-02-28 15:45:00,51.0,49.3,30.29,South,191,3.0,12.0,94,0.00,,,0.20,WUHU216DAVISVP2,2013-02-28 23:45:00,
2013-02-28 15:50:00,51.1,49.4,30.29,WSW,245,3.0,12.0,94,0.00,,,0.20,WUHU216DAVISVP2,2013-02-28 23:50:00,
2013-02-28 15:55:00,51.2,49.5,30.30,SW,224,7.0,13.0,94,0.00,,,0.20,WUHU216DAVISVP2,2013-02-28 23:55:00,
2013-02-28 16:00:00,51.4,49.4,30.30,SSE,167,6.0,13.0,93,0.00,,,0.20,WUHU216DAVISVP2,2013-03-01 00:00:00,
2013-02-28 16:05:00,51.5,49.5,30.30,South,177,4.0,13.0,93,0.00,,,0.20,WUHU216DAVISVP2,2013-03-01 00:05:00,
2013-02-28 16:10:00,51.5,49.5,30.30,WSW,252,6.0,12.0,93,0.00,,,0.20,WUHU216DAVISVP2,2013-03-01 00:10:00,
2013-02-28 16:15:00,51.4,49.7,30.30,SSW,200,7.0,12.0,94,0.00,,,0.20,WUHU216DAVISVP2,2013-03-01 00:15:00,
2013-02-28 16:20:00,51.4,49.7,30.30,South,186,7.0,13.0,94,0.00,,,0.20,WUHU216DAVISVP2,2013-03-01 00:20:00,
2013-02-28 16:25:00,51.4,49.7,30.29,SSW,195,8.0,16.0,94,0.00,,,0.20,WUHU216DAVISVP2,2013-03-01 00:25:00,
2013-02-28 16:30:00,51.4,49.7,30.29,SW,218,4.0,16.0,94,0.00,,,0.20,WUHU216DAVISVP2,2013-03-01 00:30:00,
2013-02-28 16:35:00,51.3,49.6,30.29,SSE,156,6.0,15.0,94,0.00,,,0.20,WUHU216DAVISVP2,2013-03-01 00:35:00,
2013-02-28 16:40:00,51.3,49.6,30.30,WSW,239,10.0,16.0,94,0.00,,,0.20,WUHU216DAVISVP2,2013-03-01 00:40:00,
2013-02-28 16:45:00,51.3,49.6,30.29,SW,215,12.0,19.0,94,0.00,,,0.20,WUHU216DAVISVP2,2013-03-01 00:45:00,
2013-02-28 16:50:00,51.2,49.5,30.29,WSW,248,13.0,19.0,94,0.00,,,0.20,WUHU216DAVISVP2,2013-03-01 00:50:00,
2013-02-28 16:55:00,51.2,49.5,30.29,SW,219,10.0,18.0,94,0.00,,,0.20,WUHU216DAVISVP2,2013-03-01 00:55:00,
2013-02-28 17:00:00,51.1,49.7,30.28,SW,232,14.0,18.0,95,0.00,,,0.20,WUHU216DAVISVP2,2013-03-01 01:00:00,
2013-02-28 17:05:00,51.2,49.8,30.29,WSW,247,14.0,19.0,95,0.00,,,0.20,WUHU216DAVISVP2,2013-03-01 01:05:00,
2013-02-28 17:10:00,51.1,49.7,30.29,South,190,7.0,19.0,95,0.00,,,0.20,WUHU216DAVISVP2,2013-03-01 01:10:00,
2013-02-28 17:15:00,51.1,49.7,30.29,SW,215,12.0,19.0,95,0.00,,,0.20,WUHU216DAVISVP2,2013-03-01 01:15:00,
2013-02-28 17:20:00,51.1,49.7,30.28,SSW,204,10.0,21.0,95,0.00,,,0.20,WUHU216DAVISVP2,2013-03-01 01:20:00,
2013-02-28 17:25:00,51.1,49.7,30.28,SW,222,13.0,23.0,95,0.00,,,0.20,WUHU216DAVISVP2,2013-03-01 01:25:00,
2013-02-28 17:30:00,51.1,49.7,30.28,WSW,248,8.0,23.0,95,0.00,,,0.20,WUHU216DAVISVP2,2013-03-01 01:30:00,
2013-02-28 17:35:00,51.0,49.6,30.28,SE,136,5.0,23.0,95,0.00,,,0.20,WUHU216DAVISVP2,2013-03-01 01:35:00,
2013-02-28 17:40:00,51.0,49.6,30.28,SW,232,12.0,23.0,95,0.00,,,0.20,WUHU216DAVISVP2,2013-03-01 01:40:00,
2013-02-28 17:45:00,51.1,49.7,30.28,South,186,4.0,18.0,95,0.00,,,0.20,WUHU216DAVISVP2,2013-03-01 01:45:00,
2013-02-28 17:50:00,51.1,49.7,30.28,SW,221,14.0,21.0,95,0.00,,,0.20,WUHU216DAVISVP2,2013-03-01 01:50:00,
2013-02-28 17:56:00,51.1,49.7,30.29,WSW,252,13.0,21.0,95,0.00,,,0.20,WUHU216DAVISVP2,2013-03-01 01:56:00,
2013-02-28 18:00:00,51.2,49.8,30.29,West,260,10.0,21.0,95,0.00,,,0.20,WUHU216DAVISVP2,2013-03-01 02:00:00,
2013-02-28 18:05:00,51.3,49.6,30.29,WSW,242,15.0,21.0,94,0.00,,,0.20,WUHU216DAVISVP2,2013-03-01 02:05:00,
2013-02-28 18:10:00,51.3,49.6,30.29,WSW,250,6.0,20.0,94,0.00,,,0.20,WUHU216DAVISVP2,2013-03-01 02:10:00,
2013-02-28 18:15:00,51.3,49.3,30.28,SSE,153,5.0,20.0,93,0.00,,,0.20,WUHU216DAVISVP2,2013-03-01 02:15:00,
2013-02-28 18:20:00,51.3,49.3,30.29,SW,232,17.0,23.0,93,0.00,,,0.20,WUHU216DAVISVP2,2013-03-01 02:20:00,
2013-02-28 18:25:00,51.3,49.3,30.29,SW,233,14.0,23.0,93,0.00,,,0.20,WUHU216DAVISVP2,2013-03-01 02:25:00,
2013-02-28 18:30:00,51.3,49.3,30.29,South,183,8.0,23.0,93,0.00,,,0.20,WUHU216DAVISVP2,2013-03-01 02:30:00,
2013-02-28 18:36:00,51.3,49.6,30.29,SW,232,10.0,22.0,94,0.00,,,0.20,WUHU216DAVISVP2,2013-03-01 02:36:00,
2013-02-28 18:41:00,51.3,49.3,30.30,SSW,208,11.0,26.0,93,0.00,,,0.20,WUHU216DAVISVP2,2013-03-01 02:41:00,
2013-02-28 18:46:00,51.3,49.3,30.30,WSW,242,16.0,26.0,93,0.00,,,0.20,WUHU216DAVISVP2,2013-03-01 02:46:00,
2013-02-28 18:51:00,51.3,49.3,30.30,WSW,244,14.0,26.0,93,0.00,,,0.20,WUHU216DAVISVP2,2013-03-01 02:51:00,
2013-02-28 18:56:00,51.2,49.2,30.30,WNW,283,10.0,26.0,93,0.00,,,0.20,WUHU216DAVISVP2,2013-03-01 02:56:00,
2013-02-28 19:01:00,51.2,49.5,30.30,SW,217,6.0,23.0,94,0.00,,,0.20,WUHU216DAVISVP2,2013-03-01 03:01:00,
2013-02-28 19:06:00,51.2,49.5,30.30,SSW,195,7.0,23.0,94,0.00,,,0.20,WUHU216DAVISVP2,2013-03-01 03:06:00,
2013-02-28 19:11:00,51.2,49.5,30.30,SW,224,11.0,19.0,94,0.00,,,0.20,WUHU216DAVISVP2,2013-03-01 03:11:00,
2013-02-28 19:15:00,51.3,49.3,30.31,SSW,198,10.0,21.0,93,0.00,,,0.20,WUHU216DAVISVP2,2013-03-01 03:15:00,
2013-02-28 19:21:00,51.3,49.3,30.31,WSW,253,7.0,21.0,93,0.00,,,0.20,WUHU216DAVISVP2,2013-03-01 03:21:00,
2013-02-28 19:26:00,51.4,49.4,30.31,South,180,8.0,21.0,93,0.00,,,0.20,WUHU216DAVISVP2,2013-03-01 03:26:00,
2013-02-28 19:31:00,51.4,49.4,30.31,WSW,250,14.0,22.0,93,0.00,,,0.20,WUHU216DAVISVP2,2013-03-01 03:31:00,
2013-02-28 19:36:00,51.4,49.4,30.32,WSW,241,10.0,24.0,93,0.00,,,0.20,WUHU216DAVISVP2,2013-03-01 03:36:00,
2013-02-28 19:41:00,51.3,49.6,30.32,SW,215,13.0,24.0,94,0.00,,,0.20,WUHU216DAVISVP2,2013-03-01 03:41:00,
2013-02-28 19:46:00,51.2,49.5,30.32,WSW,243,16.0,24.0,94,0.00,,,0.20,WUHU216DAVISVP2,2013-03-01 03:46:00,
2013-02-28 19:51:00,51.2,49.5,30.31,SSW,208,10.0,24.0,94,0.00,,,0.20,WUHU216DAVISVP2,2013-03-01 03:51:00,
2013-02-28 19:56:00,51.1,49.4,30.31,SW,231,12.0,21.0,94,0.00,,,0.20,WUHU216DAVISVP2,2013-03-01 03:56:00,
2013-02-28 20:01:00,51.1,49.1,30.31,SW,225,12.0,24.0,93,0.00,,,0.20,WUHU216DAVISVP2,2013-03-01 04:01:00,
2013-02-28 20:06:00,51.1,49.1,30.31,West,260,8.0,24.0,93,0.00,,,0.20,WUHU216DAVISVP2,2013-03-01 04:06:00,
2013-02-28 20:11:00,51.1,49.1,30.31,WSW,248,11.0,24.0,93,0.00,,,0.20,WUHU216DAVISVP2,2013-03-01 04:11:00,
2013-02-28 20:16:00,51.1,49.1,30.31,SW,225,10.0,23.0,93,0.00,,,0.20,WUHU216DAVISVP2,2013-03-01 04:16:00,
2013-02-28 20:21:00,51.1,49.1,30.32,SW,224,9.0,20.0,93,0.00,,,0.20,WUHU216DAVISVP2,2013-03-01 04:21:00,
2013-02-28 20:26:00,51.0,49.0,30.32,SSW,210,10.0,20.0,93,0.00,,,0.20,WUHU216DAVISVP2,2013-03-01 04:26:00,
2013-02-28 20:31:00,51.1,49.1,30.32,West,276,6.0,19.0,93,0.00,,,0.20,WUHU216DAVISVP2,2013-03-01 04:31:00,
2013-02-28 20:36:00,51.1,49.1,30.32,WSW,256,16.0,20.0,93,0.00,,,0.20,WUHU216DAVISVP2,2013-03-01 04:36:00,
2013-02-28 20:41:00,51.1,49.4,30.32,SSW,205,7.0,20.0,94,0.00,,,0.20,WUHU216DAVISVP2,2013-03-01 04:41:00,
2013-02-28 20:46:00,51.0,49.3,30.32,South,188,5.0,20.0,94,0.00,,,0.20,WUHU216DAVISVP2,2013-03-01 04:46:00,
2013-02-28 20:51:00,50.9,49.2,30.33,SW,232,16.0,20.0,94,0.00,,,0.20,WUHU216DAVISVP2,2013-03-01 04:51:00,
2013-02-28 20:56:00,50.8,49.1,30.33,WSW,244,8.0,18.0,94,0.00,,,0.20,WUHU216DAVISVP2,2013-03-01 04:56:00,
2013-02-28 21:00:00,50.8,49.1,30.33,WSW,249,11.0,18.0,94,0.00,,,0.20,WUHU216DAVISVP2,2013-03-01 05:00:00,
2013-02-28 21:05:00,50.8,49.4,30.33,SSW,210,7.0,18.0,95,0.00,,,0.20,WUHU216DAVISVP2,2013-03-01 05:05:00,
2013-02-28 21:06:00,50.8,49.4,30.33,WSW,238,5.0,18.0,95,0.00,,,0.20,WUHU216DAVISVP2,2013-03-01 05:06:00,
2013-02-28 21:11:00,50.8,49.4,30.33,SSW,195,7.0,17.0,95,0.00,,,0.20,WUHU216DAVISVP2,2013-03-01 05:11:00,
2013-02-28 21:16:00,50.7,49.3,30.33,WSW,252,7.0,17.0,95,0.00,,,0.20,WUHU216DAVISVP2,2013-03-01 05:16:00,
2013-02-28 21:21:00,50.6,49.5,30.34,WSW,252,7.0,17.0,96,0.00,,,0.20,WUHU216DAVISVP2,2013-03-01 05:21:00,
2013-02-28 21:26:00,50.5,49.4,30.34,SW,231,12.0,16.0,96,0.00,,,0.20,WUHU216DAVISVP2,2013-03-01 05:26:00,
2013-02-28 21:31:00,50.4,49.3,30.34,SW,216,10.0,15.0,96,0.00,,,0.20,WUHU216DAVISVP2,2013-03-01 05:31:00,
2013-02-28 21:36:00,50.3,49.2,30.35,SSW,194,8.0,15.0,96,0.00,,,0.20,WUHU216DAVISVP2,2013-03-01 05:36:00,
2013-02-28 21:41:00,50.2,49.1,30.35,WSW,249,14.0,15.0,96,0.00,,,0.20,WUHU216DAVISVP2,2013-03-01 05:41:00,
2013-02-28 21:46:00,50.0,49.2,30.34,WSW,252,13.0,15.0,97,0.00,,,0.20,WUHU216DAVISVP2,2013-03-01 05:46:00,
2013-02-28 21:51:00,49.9,49.1,30.34,SSW,201,9.0,20.0,97,0.00,,,0.20,WUHU216DAVISVP2,2013-03-01 05:51:00,
2013-02-28 21:56:00,49.8,49.0,30.34,SSE,166,8.0,20.0,97,0.00,,,0.20,WUHU216DAVISVP2,2013-03-01 05:56:00,
2013-02-28 22:01:00,49.8,49.0,30.34,SE,125,5.0,20.0,97,0.00,,,0.20,WUHU216DAVISVP2,2013-03-01 06:01:00,
2013-02-28 22:06:00,49.8,49.0,30.35,SW,215,11.0,19.0,97,0.00,,,0.20,WUHU216DAVISVP2,2013-03-01 06:06:00,
2013-02-28 22:11:00,49.7,48.9,30.35,SSW,211,7.0,19.0,97,0.00,,,0.20,WUHU216DAVISVP2,2013-03-01 06:11:00,
2013-02-28 22:16:00,49.7,48.9,30.35,South,174,6.0,19.0,97,0.00,,,0.20,WUHU216DAVISVP2,2013-03-01 06:16:00,
2013-02-28 22:21:00,49.6,48.8,30.35,SW,231,11.0,18.0,97,0.01,,,0.21,WUHU216DAVISVP2,2013-03-01 06:21:00,
2013-02-28 22:26:00,49.6,49.0,30.34,WSW,257,14.0,18.0,98,0.01,,,0.21,WUHU216DAVISVP2,2013-03-01 06:26:00,
2013-02-28 22:31:00,49.6,49.0,30.34,WSW,255,8.0,21.0,98,0.01,,,0.21,WUHU216DAVISVP2,2013-03-01 06:31:00,
2013-02-28 22:36:00,49.7,49.2,30.34,WSW,250,15.0,21.0,98,0.01,,,0.21,WUHU216DAVISVP2,2013-03-01 06:36:00,
2013-02-28 22:41:00,49.7,49.1,30.34,WSW,243,12.0,23.0,98,0.01,,,0.21,WUHU216DAVISVP2,2013-03-01 06:41:00,
2013-02-28 22:46:00,49.8,49.2,30.35,WSW,250,14.0,23.0,98,0.01,,,0.21,WUHU216DAVISVP2,2013-03-01 06:46:00,
2013-02-28 22:51:00,49.8,49.2,30.36,SW,233,5.0,22.0,98,0.01,,,0.21,WUHU216DAVISVP2,2013-03-01 06:51:00,
2013-02-28 22:56:00,49.8,49.2,30.36,WSW,245,3.0,19.0,98,0.01,,,0.21,WUHU216DAVISVP2,2013-03-01 06:56:00,
2013-02-28 23:01:00,49.8,49.2,30.35,SW,232,6.0,19.0,98,0.01,,,0.21,WUHU216DAVISVP2,2013-03-01 07:01:00,
2013-02-28 23:06:00,49.8,49.2,30.35,SSW,200,4.0,13.0,98,0.01,,,0.21,WUHU216DAVISVP2,2013-03-01 07:06:00,
2013-02-28 23:11:00,49.8,49.3,30.35,SSE,165,4.0,13.0,98,0.01,,,0.21,WUHU216DAVISVP2,2013-03-01 07:11:00,
2013-02-28 23:16:00,49.9,49.3,30.34,West,269,8.0,13.0,98,0.01,,,0.21,WUHU216DAVISVP2,2013-03-01 07:16:00,
2013-02-28 23:21:00,49.9,49.1,30.35,WSW,245,9.0,14.0,97,0.00,,,0.21,WUHU216DAVISVP2,2013-03-01 07:21:00,
2013-02-28 23:26:00,50.0,49.2,30.35,WSW,245,10.0,14.0,97,0.00,,,0.21,WUHU216DAVISVP2,2013-03-01 07:26:00,
2013-02-28 23:31:00,50.1,49.3,30.35,SW,221,6.0,15.0,97,0.00,,,0.21,WUHU216DAVISVP2,2013-03-01 07:31:00,
2013-02-28 23:36:00,50.1,49.3,30.35,SW,226,10.0,15.0,97,0.01,,,0.22,WUHU216DAVISVP2,2013-03-01 07:36:00,
2013-02-28 23:41:00,50.2,49.4,30.35,West,266,10.0,15.0,97,0.01,,,0.22,WUHU216DAVISVP2,2013-03-01 07:41:00,
2013-02-28 23:46:00,50.3,49.5,30.35,SSW,210,4.0,15.0,97,0.01,,,0.22,WUHU216DAVISVP2,2013-03-01 07:46:00,
2013-02-28 23:51:00,50.3,49.2,30.35,WSW,239,7.0,15.0,96,0.01,,,0.22,WUHU216DAVISVP2,2013-03-01 07:51:00,
2013-02-28 23:56:00,50.3,49.2,30.35,WSW,247,3.0,14.0,96,0.02,,,0.23,WUHU216DAVISVP2,2013-03-01 07:56:00,